Погода в Савоне

Италия     44°18′14″N   8°28′37″E
темп.,
°C
ветер,
м/с
пор.,
м/с
влажн.,
%
обл.,
%
осадки,
мм/ч
давл.,
гПа
погр.,
м
20 сентября, пн
пн2023:00+17ссз67760 0.0 1010170
02:00+16сз45695 0.0 1011140
05:00+16ссз45660 0.0 1011132
08:00+16сз45663 0.0 1012135
11:00+22с23430 0.0 1013650
14:00+22юв3348100 0.0 1013674
17:00+21зсз015394 0.1 1013224
20:00+20ссз226297 0.2 101589
21 сентября, вт
вт2123:00+19ссз236449 0.1 1017110
02:00+17ссз45675 0.1 1018138
05:00+17ссз46715 0.0 1018167
08:00+16ссз577351 0.0 1020266
11:00+21с45593 0.0 1021765
14:00+22ссв44530 0.0 10211008
17:00+23св23533 0.0 1021611
20:00+19ссз34690 0.0 1022133
22 сентября, ср
ср2223:00+18ссз45750 0.0 1022140
02:00+18ссз56750 0.0 1022160
05:00+17ссз56770 0.0 1022180
08:00+17ссз56770 0.0 1022174
11:00+22ссв23535 0.0 1021677
14:00+23ююв435519 0.0 1020559
17:00+22юз33606 0.0 1018328
20:00+20сз21665 0.0 101970
23 сентября, чт
чт2323:00+18ссз33725 0.0 1019101
02:00+18сз56735 0.0 1019146
05:00+17ссз687518 0.0 1019212
08:00+17ссз6107533 0.0 1018339
11:00+21ссз575582 0.0 1019692
14:00+23всв2349100 0.0 1017616
17:00+23ююв2254100 0.0 1016611
20:00+20зсз11656 0.0 1016113
24 сентября, пт
пт2423:00+18ссз33728 0.0 1017101
02:00+18ссз22720 0.0 101697
05:00+18ссз21721 0.0 1016112
08:00+18с22741 0.0 1016187
11:00+21в347023 0.0 1016689
14:00+21в447847 0.1 1016661
17:00+21всв348372 0.5 1015376
20:00+21в228756 1.5 1015112